User: anonymous   Login
Location: Houston
(29.7631°N, 95.3631°W)
Time: 16:44:18
(UTC-05:00)
Language:

CAS-4A - Orbit

View from above orbital plane
View from above orbital plane
View from above satellite
View from above satellite

Ground track
Ground track

The orbit data is extracted from the following two-line orbital elements,

1 42761U 17034D   19140.19920681  .00000245  00000-0  28488-4 0  9991
2 42761  43.0192  32.3116 0010322  62.5715  76.2342 15.09645152106370
Epoch (UTC): 20 May 2019 04:46:51
Eccentricity: 0.0010322
inclination: 43.0192°
perigee height: 530 km
apogee height: 544 km
right ascension of ascending node: 32.3116°
argument of perigee: 62.5715°
revolutions per day: 15.09645152
mean anomaly at epoch: 76.2342°
orbit number at epoch: 10637

The dashed part of the orbit path shows where the satellite is in the earth's shadow,  

DLR